• Processing (Info)

  • MPEC 2010-G100: 2010 GD35

    The following Minor Planet Electronic Circular may be linked-to from your own Web pages, but must not otherwise be redistributed electronically.

    A form allowing access to any MPEC is at the bottom of this page.


    Read MPEC 2010-G99 Read MPEC 2010-G101


    M.P.E.C. 2010-G100                               Issued 2010 Apr. 13, 12:17 UT
    
         The Minor Planet Electronic Circulars contain information on unusual
             minor planets and routine data on comets.  They are published
       on behalf of Commission 20 of the International Astronomical Union by the
              Minor Planet Center, Smithsonian Astrophysical Observatory,
                              Cambridge, MA 02138, U.S.A.
    
                 Prepared using the Tamkin Foundation Computer Network
    
                                  MPC@CFA.HARVARD.EDU
           URL http://www.minorplanetcenter.org/iau/mpc.html  ISSN 1523-6714
    
                                       2010 GD35
    
    Observations:
         K10G35D* C2010 04 12.33579 13 33 03.96 -03 55 19.4          19.9 V EG100G96
         K10G35D  C2010 04 12.34201 13 32 58.30 -03 55 16.6          19.7 V EG100G96
         K10G35D  C2010 04 12.34822 13 32 52.62 -03 55 13.7          19.8 V EG100G96
         K10G35D  C2010 04 12.35442 13 32 46.96 -03 55 10.9          19.7 V EG100G96
         K10G35D  C2010 04 12.40628 13 31 59.75 -03 54 48.2          19.4 R EG100H01
         K10G35D  C2010 04 12.41281 13 31 53.87 -03 54 44.8          19.2 R EG100H01
         K10G35D  C2010 04 12.42517 13 31 42.75 -03 54 39.0          19.2 R EG100H01
         K10G35D  C2010 04 12.43093 13 31 37.62 -03 54 36.4          19.7 R EG100H01
         K10G35D  C2010 04 12.45127 13 31 19.56 -03 54 22.7          19.9 R EG100926
         K10G35D  C2010 04 12.45374 13 31 17.38 -03 54 21.3          19.1 R EG100926
         K10G35D KC2010 04 12.89761 13 25 03.62 -03 51 22.9                 EG100J95
         K10G35D KC2010 04 12.90891 13 24 53.75 -03 51 17.4                 EG100J95
         K10G35D KC2010 04 12.91653 13 24 47.18 -03 51 13.8          19.9 R EG100J95
         K10G35D KC2010 04 13.23686 13 20 17.94 -03 48 31.5          20.1 R EG100H36
         K10G35D KC2010 04 13.24219 13 20 13.38 -03 48 29.0          19.6 R EG100H36
         K10G35D KC2010 04 13.24795 13 20 08.44 -03 48 25.9          19.9 R EG100H36
         K10G35D  C2010 04 13.30974 13 19 16.84 -03 47 46.9          19.7 R EG100854
         K10G35D  C2010 04 13.31948 13 19 08.57 -03 47 44.7          19.7 R EG100854
         K10G35D  C2010 04 13.32597 13 19 02.85 -03 47 41.0          19.8 V EG100G96
         K10G35D  C2010 04 13.32885 13 18 58.61 -03 47 48.5          19.8 V EG100H21
         K10G35D  C2010 04 13.33151 13 18 58.10 -03 47 38.4          19.9 V EG100G96
         K10G35D  C2010 04 13.33343 13 18 54.71 -03 47 45.5          20.1 V EG100H21
         K10G35D  C2010 04 13.33709 13 18 53.35 -03 47 35.5          19.7 V EG100G96
         K10G35D  C2010 04 13.33861 13 18 50.32 -03 47 43.6          20.0 V EG100H21
         K10G35D  C2010 04 13.34272 13 18 48.49 -03 47 33.0          19.5 V EG100G96
         K10G35D  C2010 04 13.35965 13 18 34.07 -03 47 23.5          19.8 R EG100926
         K10G35D  C2010 04 13.36259 13 18 31.55 -03 47 22.0          19.8 R EG100926
         K10G35D  C2010 04 13.36552 13 18 29.05 -03 47 20.6          19.8 R EG100926
    
    Observer details:
    854 Sabino Canyon Observatory, Tucson.  Observer J. E. McGaha.  0.36-m f/10.0
        Schmidt-Cassegrain + CCD.
    926 Tenagra II Observatory.  Observers P. R. Holvorcem, M. Schwartz.  Measurer
        P. R. Holvorcem.  0.81-m f/7 Ritchey-Chretien + CCD.
    G96 Mt. Lemmon Survey.  Observer S. M. Larson.  Measurers J. D. Ahern,
        E. C. Beshore, A. Boattini, G. J. Garradd, A. R. Gibbs, A. D. Grauer,
        R. E. Hill, R. A. Kowalski, S. M. Larson, R. H. McNaught.  1.5-m reflector
        + CCD.
    H01 Magdalena Ridge Observatory, Socorro.  Observers W. H. Ryan, E. V. Ryan.
        Measurer W. H. Ryan.  2.4-m f/8.9 reflector + CCD.
    H21 Astronomical Research Observatory, Westfield.  Observer R. Holmes.
        Measurer H. Devore.  0.61-m f/4.5 astrograph + CCD.
    H36 Sandlot Observatory, Scranton.  Observer G. Hug.  0.56-m reflector + CCD.
    J95 Great Shefford.  Observer P. Birtwhistle.  0.40-m f/6.0 Schmidt-Cassegrain
        + CCD.
    
    Orbital elements:
    2010 GD35                                                Earth MOID = 0.0390 AU
    Epoch 2010 July 23.0 TT = JDT 2455400.5                 MPC
    M 288.99913              (2000.0)            P               Q
    n   1.47583792     Peri.   13.57785     +0.77801784     -0.62559180
    a   0.7640298      Node    25.42586     +0.56313644     +0.65377095
    e   0.4821880      Incl.    7.71625     +0.27850600     +0.42569760
    P   0.67           H   24.6           G   0.15           U   9
    Residuals in seconds of arc
    100412 G96  0.1-  0.0     100412 J95  0.6+  0.5-    100413 G96  0.4-  0.0
    100412 G96  0.1+  0.1-    100412 J95  0.6-  0.0     100413 H21  0.1-  0.4+
    100412 G96  0.3-  0.1-    100412 J95  0.0   0.1+    100413 G96  0.0   0.3+
    100412 G96  0.5-  0.2-    100413 H36  0.7-  0.5-    100413 H21  0.1-  0.2-
    100412 H01  0.1+  0.0     100413 H36  0.4-  0.5-    100413 G96  0.6-  0.1+
    100412 H01  0.0   0.3+    100413 H36  0.3-  0.1-    100413 926  0.3+  0.2+
    100412 H01  0.3-  0.1+    100413 854  0.6+  1.6+    100413 926  0.1+  0.3+
    100412 H01  0.2+  0.1-    100413 854  1.9+  0.8-    100413 926  0.1+  0.2+
    100412 926  0.3+  0.4+    100413 G96  0.4-  0.0
    100412 926  0.7+  0.6+    100413 H21  0.0   0.3-
    
    Ephemeris:
    2010 GD35                a,e,i = 0.76, 0.48, 8                   q = 0.3956
    Date    TT    R. A. (2000) Decl.     Delta      r     Elong.  Phase     V
    2010 04 14    13 10.04   -03 41.5    0.0919   1.094   172.9     6.5    20.1
    2010 04 15    12 57.43   -03 33.8    0.0953   1.097   169.5     9.6    20.3
    2010 04 16    12 45.75   -03 26.4    0.0990   1.100   166.0    12.7    20.5
    2010 04 17    12 34.98   -03 19.3    0.103    1.102   162.6    15.8    20.7
    2010 04 18    12 25.09   -03 12.7    0.107    1.105   159.3    18.7    20.9
    2010 04 19    12 16.02   -03 06.7    0.112    1.107   156.2    21.5    21.1
    2010 04 20    12 07.73   -03 01.1    0.116    1.110   153.2    24.1    21.3
    2010 04 21    12 00.16   -02 56.2    0.121    1.112   150.4    26.5    21.4
    2010 04 22    11 53.24   -02 51.8    0.126    1.114   147.8    28.7    21.6
    2010 04 23    11 46.94   -02 47.9    0.132    1.116   145.3    30.8    21.8
    2010 04 24    11 41.19   -02 44.7    0.137    1.118   143.0    32.8    21.9
    2010 04 25    11 35.95   -02 41.9    0.142    1.120   140.7    34.6    22.0
    2010 04 26    11 31.18   -02 39.6    0.148    1.121   138.6    36.4    22.2
    2010 04 27    11 26.82   -02 37.7    0.153    1.123   136.6    38.0    22.3
    2010 04 28    11 22.85   -02 36.3    0.159    1.124   134.7    39.5    22.4
    2010 04 29    11 19.24   -02 35.4    0.165    1.125   132.9    41.0    22.5
    2010 04 30    11 15.94   -02 34.8    0.171    1.127   131.1    42.3    22.7
    2010 05 01    11 12.94   -02 34.5    0.176    1.128   129.5    43.6    22.8
    2010 05 02    11 10.20   -02 34.6    0.182    1.129   127.8    44.8    22.9
    2010 05 03    11 07.72   -02 35.0    0.188    1.130   126.3    46.0    23.0
    2010 05 04    11 05.46   -02 35.8    0.194    1.130   124.8    47.1    23.1
    
    Timothy B. Spahr             (C) Copyright 2010 MPC           M.P.E.C. 2010-G100
    

    Read MPEC 2010-G99 Read MPEC 2010-G101


    MPEC number:

    Enter an MPEC number in one of the following forms:

    • 1997-B01 (the full form)
    • J97B01 (the packed version of the full form)
    • B01 (the abbreviated form)